Weather in Chernihovtsy

Ukraine / Ternopil District     49°37′55″N   25°43′37″E
temp.,
°C
wind,
m/s
gust,
m/s
humid.,
%
clouds,
%
prec.,
mm/h
press.,
hPa
HPBL,
m
26 july, mon
mon2600:00+17se487496 0.0 1018119
03:00+17se41074100 0.0 1018171
06:00+17se4117151 0.0 1018222
09:00+18se5127299 0.0 1017325
12:00+21sse51068100 0.0 1017496
15:00+26sse785582 0.0 1017968
18:00+25sse695917 0.0 1016810
21:00+18sse4148788 1.0 1017321
27 july, tue
tue2700:00+17sse4139156 2.3 1017252
03:00+17sse5148816 2.6 1016243
06:00+16sse5129169 0.8 1016203
09:00+20s488490 0.8 1016219
12:00+26s676132 0.0 1015646
15:00+27s575998 0.0 1015649
18:00+25s597399 0.2 1014405
21:00+22s598940 1.1 1013154
28 july, wed
wed2800:00+20wsw368891 0.1 1015112
03:00+19nw35945 1.2 101590
06:00+18nw37964 0.0 1015146
09:00+21nw358599 0.0 1016359
12:00+25nw33609 0.0 1016904
15:00+27w23515 0.0 10151259
18:00+27wnw12525 0.0 10141087
21:00+23ene1169100 0.1 101411
29 july, thu
thu2900:00+20se228486 0.4 101428
03:00+19se358999 1.8 101394
06:00+19s22925 0.6 101219
09:00+23wsw587712 0.6 1013376
12:00+25wnw677127 0.0 1013769
15:00+26wnw666512 0.0 10131180
18:00+24wnw67714 0.0 1013843
21:00+19wnw36890 0.0 1014114
30 july, fri
fri3000:00+18wnw23920 0.0 101434
03:00+17wnw22920 0.0 101332
06:00+16wnw11904 0.0 101311
09:00+21se11710 0.0 1013281
12:00+26s33550 0.0 1012900
15:00+28s44492 0.0 1010957
18:00+28sse34530 0.0 1009851
21:00+24sse396825 0.0 1008210